Location: Pl�tzky
(52.0521°N, 11.8020°E)
Time: 00:44:08
(UTC+00:00)

USA 229 - Pass Details

Date: 21 February 2020
Orbit: 986 x 1226 km, 63.4° (Epoch: 26 March)

Event Time Altitude Azimuth Distance (km) Brightness Sun altitude
Rises 21:48:25 0° 287° (WNW) 3,813 7.1 -43.9°
Reaches altitude 10° 21:51:19 10° 297° (WNW) 2,894 6.4 -44.2°
Enters shadow 21:55:14 27° 328° (NNW) 1,948 5.4 -44.5°
